Overview Statistics Trail Chart Weather Telemetry Raw packets
 

This is the latest recevied weather packets stored in our database for station/object PA3TA-2. If no packets are shown the sender has not sent any weather packets the latest 10 day(s).

<< 1 2 3 4 >>
Time Temp. Humidity Pressure Rain* Wind** Luminosity Snow
1788686083 20° C 64% 1027.9 hPa 0 mm - - -
1788685780 19.44° C 66% 1028 hPa 0 mm - - -
1788685466 18.89° C 67% 1028 hPa 0 mm - - -
1788685162 18.89° C 68% 1027.9 hPa 0 mm - - -
1788684859 18.33° C 68% 1028.1 hPa 0 mm - - -
1788684556 18.33° C 70% 1028.2 hPa 0 mm - - -
1788684253 17.78° C 72% 1028.3 hPa 0 mm - - -
1788683949 17.22° C 73% 1028.2 hPa 0 mm - - -
1788683646 17.22° C 74% 1028.4 hPa 0 mm - - -
1788683343 16.67° C 73% 1028.5 hPa 0 mm - - -
1788683028 16.67° C 73% 1028.6 hPa 0 mm - - -
1788682725 16.11° C 75% 1028.6 hPa 0 mm - - -
1788682422 15.56° C 76% 1028.7 hPa 0 mm - - -
1788682118 15.56° C 76% 1028.7 hPa 0 mm - - -
1788681815 15° C 77% 1028.8 hPa 0 mm - - -
1788681512 15° C 77% 1028.7 hPa 0 mm - - -
1788681209 14.44° C 77% 1028.7 hPa 0 mm - - -
1788680906 14.44° C 77% 1028.7 hPa 0 mm - - -
1788680735 14.44° C 77% 1028.7 hPa 0 mm - - -
1788680433 14.44° C 76% 1028.6 hPa 0 mm - - -
1788680118 14.44° C 76% 1028.7 hPa 0 mm - - -
1788679814 14.44° C 75% 1028.7 hPa 0 mm - - -
1788679511 14.44° C 75% 1028.7 hPa 0 mm - - -
1788679208 14.44° C 75% 1028.6 hPa 0 mm - - -
1788678905 13.89° C 75% 1028.6 hPa 0 mm - - -

* Rain since midnight (hover to see other rain measurements)
** Current wind speed in m/s (hover to see current wind gust speed)